Zurück zum Katalog

STARLINK-36944

AktivKommunikationSSO
NORAD 68029·PAYLOAD·🇺🇸 United States

Gestartet Mar 1, 2026 von Vandenberg Space Force Base

Loading…

Nächste Überflüge (nächste 24 Stunden)

TLE

AktuellSource: CelesTrak SupGP

Epoche: Sep 14, 2026, 22:44 UTC

1 68029C 26040Q   26257.94770833 -.00055768  00000+0 -17315-2 0  2578
2 68029  97.2854 205.3607 0001865  91.7827  20.1125 15.33460834    18

Verfolge STARLINK-36944 in Echtzeit mit AllMySat

Download on the App Store